Tracking 30995 objects as of 6-Jul-2025
HD Live streaming from Space Station
objects crossing your sky now

CHAMRAN-1

Track CHAMRAN-1 now!
10-day predictions


NORAD ID: 61072
Int'l Code: 2024-165B
Perigee: 533.4 km
Apogee: 567.1 km
Inclination: 64.1 °
Period: 95.5 minutes
Semi major axis: 6921 km
RCS: Unknown
Launch date: September 14, 2024
Source: Iran (IRAN)
Launch site: Sharud Missile Test Site (SMTS)
Your satellite tracking list
Your tracking list is empty




NASA's NSSDC Master Catalog

Two Line Element Set (TLE):
1 61072U 24165B   25186.86833654  .00003168  00000-0  21744-3 0  9998
2 61072  64.0901  97.7269 0024382 314.6071  45.3053 15.07742178 44391
Source of the keplerian elements: AFSPC